• en France
  • Liste des pays
  • À 7 jours
  • Température de l'eau
  • Carte satellitaire
  • Carte météo
  • Widgets météo
  • user-avatar
    Se connecter

    Météo par heure à Pasto

    Ce jour, 21 Octobre, Dimanche

    Heure Température Précipitation Vent Pression Humidité
    00:00 +11°C° 0.4 mm 1 m/s 548 mmHg 94%
    01:00 +11°C° 0 mm 1 m/s 548 mmHg 94%
    02:00 +11°C° 0.1 mm 1 m/s 547 mmHg 93%
    03:00 +11°C° 0.1 mm 1 m/s 547 mmHg 92%
    04:00 +11°C° 0.1 mm 1 m/s 547 mmHg 92%
    05:00 +11°C° 0 mm 1 m/s 547 mmHg 89%
    06:00 +11°C° 0 mm 1 m/s 548 mmHg 87%
    07:00 +11°C° 0 mm 0 m/s 548 mmHg 84%
    08:00 +13°C° 0 mm 1 m/s 549 mmHg 77%
    09:00 +15°C° 0 mm 1 m/s 550 mmHg 70%
    10:00 +18°C° 0 mm 1 m/s 551 mmHg 63%
    11:00 +17°C° 0.1 mm 2 m/s 551 mmHg 64%
    12:00 +17°C° 0.1 mm 2 m/s 550 mmHg 64%
    13:00 +17°C° 0.1 mm 2 m/s 549 mmHg 65%
    14:00 +16°C° 0.5 mm 2 m/s 549 mmHg 69%
    15:00 +16°C° 0.5 mm 2 m/s 548 mmHg 72%
    16:00 +15°C° 0.5 mm 2 m/s 548 mmHg 76%
    17:00 +14°C° 1 mm 2 m/s 548 mmHg 82%
    18:00 +13°C° 1 mm 2 m/s 547 mmHg 87%
    19:00 +12°C° 1 mm 1 m/s 547 mmHg 93%
    20:00 +11°C° 0.2 mm 1 m/s 548 mmHg 93%
    21:00 +11°C° 0.2 mm 1 m/s 548 mmHg 93%
    22:00 +11°C° 0.2 mm 1 m/s 548 mmHg 93%
    23:00 +11°C° 0.1 mm 1 m/s 548 mmHg 92%

    Demain, 22 Octobre, Lundi

    Heure Température Précipitation Vent Pression Humidité
    00:00 +10°C° 0.1 mm 1 m/s 547 mmHg 91%
    01:00 +10°C° 0.1 mm 1 m/s 547 mmHg 90%
    02:00 +10°C° 0 mm 1 m/s 547 mmHg 89%
    03:00 +10°C° 0 mm 1 m/s 547 mmHg 88%
    04:00 +10°C° 0 mm 1 m/s 546 mmHg 87%
    05:00 +10°C° 0 mm 1 m/s 547 mmHg 85%
    06:00 +11°C° 0 mm 1 m/s 548 mmHg 82%
    07:00 +11°C° 0 mm 1 m/s 548 mmHg 80%
    08:00 +13°C° 0 mm 1 m/s 549 mmHg 71%
    09:00 +16°C° 0 mm 1 m/s 551 mmHg 62%
    10:00 +18°C° 0 mm 2 m/s 552 mmHg 54%
    11:00 +18°C° 0.3 mm 2 m/s 552 mmHg 57%
    12:00 +18°C° 0.3 mm 2 m/s 551 mmHg 60%
    13:00 +18°C° 0.3 mm 3 m/s 550 mmHg 63%
    14:00 +17°C° 0.7 mm 2 m/s 550 mmHg 67%
    15:00 +16°C° 0.7 mm 2 m/s 549 mmHg 71%
    16:00 +15°C° 0.7 mm 2 m/s 548 mmHg 76%
    17:00 +14°C° 0.8 mm 2 m/s 548 mmHg 81%
    18:00 +13°C° 0.8 mm 2 m/s 548 mmHg 87%
    19:00 +12°C° 0.8 mm 1 m/s 548 mmHg 93%
    20:00 +11°C° 0.5 mm 1 m/s 548 mmHg 93%
    21:00 +11°C° 0.5 mm 1 m/s 548 mmHg 93%
    22:00 +11°C° 0.5 mm 1 m/s 549 mmHg 94%
    23:00 +11°C° 0.3 mm 1 m/s 548 mmHg 93%

    Après-demain, 23 Octobre, Mardi

    Heure Température Précipitation Vent Pression Humidité
    00:00 +10°C° 0.3 mm 1 m/s 548 mmHg 93%
    01:00 +10°C° 0.3 mm 1 m/s 548 mmHg 93%
    02:00 +10°C° 0.1 mm 1 m/s 547 mmHg 92%
    03:00 +10°C° 0.1 mm 1 m/s 547 mmHg 91%
    04:00 +10°C° 0.1 mm 1 m/s 547 mmHg 90%
    05:00 +10°C° 0 mm 1 m/s 547 mmHg 87%
    06:00 +11°C° 0 mm 1 m/s 548 mmHg 83%
    07:00 +11°C° 0 mm 1 m/s 548 mmHg 80%
    08:00 +14°C° 0 mm 1 m/s 550 mmHg 71%
    09:00 +16°C° 0 mm 1 m/s 551 mmHg 62%
    10:00 +18°C° 0 mm 2 m/s 553 mmHg 54%
    11:00 +18°C° 0.3 mm 2 m/s 552 mmHg 57%
    12:00 +18°C° 0.3 mm 2 m/s 551 mmHg 61%
    13:00 +17°C° 0.3 mm 2 m/s 550 mmHg 64%
    14:00 +17°C° 0.6 mm 2 m/s 550 mmHg 69%
    15:00 +16°C° 0.6 mm 2 m/s 549 mmHg 74%
    16:00 +15°C° 0.6 mm 2 m/s 548 mmHg 79%
    17:00 +14°C° 0.6 mm 2 m/s 548 mmHg 83%
    18:00 +13°C° 0.6 mm 1 m/s 548 mmHg 88%
    19:00 +12°C° 0.6 mm 1 m/s 548 mmHg 93%
    20:00 +12°C° 0.4 mm 1 m/s 548 mmHg 93%
    21:00 +11°C° 0.4 mm 1 m/s 548 mmHg 93%
    22:00 +11°C° 0.4 mm 1 m/s 549 mmHg 92%
    23:00 +11°C° 0.1 mm 1 m/s 548 mmHg 92%

    24 Octobre, Mercredi

    Heure Température Précipitation Vent Pression Humidité
    00:00 +11°C° 0.1 mm 1 m/s 548 mmHg 92%
    01:00 +10°C° 0.1 mm 1 m/s 548 mmHg 91%
    02:00 +10°C° 0 mm 1 m/s 547 mmHg 91%
    03:00 +10°C° 0 mm 1 m/s 547 mmHg 90%
    04:00 +10°C° 0 mm 1 m/s 547 mmHg 90%
    05:00 +10°C° 0 mm 1 m/s 547 mmHg 87%
    06:00 +11°C° 0 mm 1 m/s 548 mmHg 84%
    07:00 +11°C° 0 mm 1 m/s 548 mmHg 81%
    08:00 +13°C° 0 mm 1 m/s 550 mmHg 73%
    09:00 +15°C° 0 mm 1 m/s 551 mmHg 64%
    10:00 +17°C° 0 mm 2 m/s 552 mmHg 56%
    11:00 +17°C° 0.3 mm 2 m/s 551 mmHg 59%
    12:00 +17°C° 0.3 mm 2 m/s 551 mmHg 63%
    13:00 +17°C° 0.3 mm 2 m/s 550 mmHg 66%
    14:00 +16°C° 0.6 mm 2 m/s 549 mmHg 70%
    15:00 +16°C° 0.6 mm 2 m/s 549 mmHg 73%
    16:00 +15°C° 0.6 mm 2 m/s 548 mmHg 77%
    17:00 +14°C° 1 mm 2 m/s 548 mmHg 82%
    18:00 +13°C° 1 mm 1 m/s 548 mmHg 88%
    19:00 +12°C° 1 mm 1 m/s 548 mmHg 93%
    20:00 +12°C° 0.5 mm 1 m/s 548 mmHg 93%
    21:00 +11°C° 0.5 mm 1 m/s 548 mmHg 93%
    22:00 +11°C° 0.5 mm 1 m/s 549 mmHg 93%
    23:00 +11°C° 0.7 mm 1 m/s 548 mmHg 93%

    25 Octobre, Jeudi

    Heure Température Précipitation Vent Pression Humidité
    00:00 +11°C° 0.7 mm 1 m/s 548 mmHg 93%
    01:00 +10°C° 0.7 mm 1 m/s 548 mmHg 93%
    02:00 +10°C° 0.1 mm 1 m/s 547 mmHg 92%
    03:00 +10°C° 0.1 mm 1 m/s 547 mmHg 92%
    04:00 +10°C° 0.1 mm 1 m/s 547 mmHg 91%
    05:00 +11°C° 0 mm 1 m/s 547 mmHg 89%
    06:00 +11°C° 0 mm 1 m/s 548 mmHg 86%
    07:00 +11°C° 0 mm 1 m/s 549 mmHg 84%
    08:00 +13°C° 0 mm 1 m/s 550 mmHg 76%
    09:00 +15°C° 0 mm 1 m/s 551 mmHg 67%
    10:00 +18°C° 0 mm 1 m/s 552 mmHg 59%
    11:00 +17°C° 0.3 mm 2 m/s 551 mmHg 63%
    12:00 +17°C° 0.3 mm 2 m/s 550 mmHg 66%
    13:00 +16°C° 0.3 mm 2 m/s 550 mmHg 69%
    14:00 +16°C° 0.6 mm 2 m/s 549 mmHg 73%
    15:00 +15°C° 0.6 mm 2 m/s 548 mmHg 76%
    16:00 +14°C° 0.6 mm 2 m/s 548 mmHg 80%
    17:00 +14°C° 0.7 mm 1 m/s 548 mmHg 85%
    18:00 +13°C° 0.7 mm 1 m/s 548 mmHg 89%
    19:00 +12°C° 0.7 mm 1 m/s 548 mmHg 94%
    20:00 +12°C° 0.4 mm 1 m/s 548 mmHg 94%
    21:00 +11°C° 0.4 mm 1 m/s 548 mmHg 95%
    22:00 +10°C° 0.4 mm 0 m/s 549 mmHg 95%
    23:00 +10°C° 0.2 mm 0 m/s 548 mmHg 96%

    26 Octobre, Vendredi

    Heure Température Précipitation Vent Pression Humidité
    00:00 +10°C° 0.2 mm 0 m/s 548 mmHg 96%
    01:00 +10°C° 0.2 mm 0 m/s 547 mmHg 96%
    02:00 +10°C° 0.1 mm 0 m/s 547 mmHg 96%
    03:00 +10°C° 0.1 mm 0 m/s 547 mmHg 96%
    04:00 +10°C° 0.1 mm 0 m/s 547 mmHg 96%
    05:00 +10°C° 0 mm 0 m/s 547 mmHg 94%
    06:00 +10°C° 0 mm 0 m/s 548 mmHg 91%
    07:00 +11°C° 0 mm 0 m/s 549 mmHg 89%
    08:00 +13°C° 0.1 mm 1 m/s 549 mmHg 84%
    09:00 +14°C° 0.1 mm 1 m/s 550 mmHg 79%
    10:00 +15°C° 0.1 mm 2 m/s 551 mmHg 74%
    11:00 +15°C° 0.3 mm 2 m/s 550 mmHg 74%
    12:00 +15°C° 0.3 mm 2 m/s 550 mmHg 75%
    13:00 +15°C° 0.3 mm 2 m/s 549 mmHg 75%
    14:00 +15°C° 0.7 mm 2 m/s 549 mmHg 78%
    15:00 +14°C° 0.7 mm 1 m/s 548 mmHg 80%
    16:00 +14°C° 0.7 mm 1 m/s 548 mmHg 82%
    17:00 +13°C° 0.8 mm 1 m/s 548 mmHg 86%
    18:00 +12°C° 0.8 mm 1 m/s 548 mmHg 89%
    19:00 +12°C° 0.8 mm 1 m/s 548 mmHg 92%
    20:00 +12°C° 0.8 mm 1 m/s 549 mmHg 92%
    21:00 +12°C° 0.8 mm 1 m/s 549 mmHg 92%
    22:00 +11°C° 0.8 mm 1 m/s 549 mmHg 91%
    23:00 +11°C° 0.6 mm 1 m/s 549 mmHg 91%
    Voir plus